Retour au catalogue

USA 74

ActifMilitaireLEO
NORAD 21799·PAYLOAD·🇺🇸 United States

Lancé Nov 8, 1991 depuis Vandenberg Space Force Base

Loading…

Prochains Passages (prochaines 24 heures)

TLE

FraisSource: Space-Track

Époque: Sep 14, 2026, 00:18 UTC

1 21799U 91076C   26257.01293147  .00003338  00000-0  24535-3 0  9999
2 21799  63.2921 264.4268 0881092  74.9859 294.6900 13.62536594115703

Suivez USA 74 en temps réel avec AllMySat

Download on the App Store